SCP
-0 -0 -0 -0 -0 -0 -0 -0 -0 -0 -0 -0 -0 -0 -0 -0 0 0 0 0 0 0 0 0 0 0 0 0 0 0 0 0 0 0 0 0 0 0 0 0 0 0 0
0 0 0 0 -0 -0 -0 -0 0 -0 -0 -0 0 0 0 0 0 0 0 0 0 0 0 0 0 0 0 0 0 0 0 0 0 0 0 0 0 0 0 0 0 0 0
0 0 0 0 0 0 0 0 0 0 0 0 0 0 0 0 0 0 0 0 0 0 0 0 0 0 0 0 0 0 0 0 0 0 0 0 0 0 0 0 0 0 0
0 0 0 0 0 0 0 0 0 0 0 0 0 0 0 0 0 0 0 0 0 0 0 0 0 0 0 0 0 0 0 0 0 0 0 0 0 0 0 0 0 0 0
0 0 0 0 0 0 0 0 0 0 0 0 0 0 0 0 0 0 0 0 0 0 0 0 0 0 0 0 0 0 0 0 0 0 0 0 0 0 0 0 0 0 0
1 0 0 0 0 0 0 0 0 0 0 0 0 0 0 0 0 0 0 0 0 0 0 0 0 0 0 0 0 0 0 0 0 0 0 0 0 0 0 0 0 0 0
1 1 1 0 0 0 0 0 0 0 0 0 0 0 0 0 0 0 0 0 0 0 0 0 0 0 0 0 0 0 0 0 0 0 0 0 0 0 0 0 0 0 0
1 1 1 1 0 0 0 0 0 0 0 0 0 0 0 0 0 0 0 0 0 0 0 0 0 0 0 0 0 0 0 0 0 0 0 0 0 0 0 0 0 0 0
0 0 1 1 1 0 1 0 0 0 0 0 0 0 0 0 0 0 0 0 0 0 0 0 0 0 0 0 0 0 0 0 0 0 0 0 0 0 0 0 0 0 0
0 0 0 1 1 1 1 1 1 0 0 0 0 0 0 0 0 0 0 0 0 0 0 0 0 0 0 0 0 0 0 0 0 0 0 0 0 0 0 0 0 0 0
0 0 0 0 1 1 1 1 1 1 0 0 0 0 0 0 0 0 0 0 0 0 0 0 0 0 0 0 0 0 0 0 0 0 0 0 0 0 0 0 0 0 0
0 0 0 0 0 0 0 0 0 0 0 0 0 0 0 0 0 0 0 0 0 0 0 0 0 0 0 0 0 0 0 0 0 0 0 0 0 0 0 0 0 0 0
0 0 0 0 0 0 0 0 0 0 0 0 0 0 0 0 0 0 0 0 0 0 0 0 0 0 0 0 0 0 0 0 0 0 0 0 0 0 0 0 0 0 0
-0 0 0 0 0 0 0 0 0 0 0 0 0 0 0 0 0 0 0 0 0 0 0 0 0 0 0 0 0 0 0 0 0 0 0 0 0 0 0 0 0 0 0
0 -0 0 0 0 0 0 0 0 0 0 0 0 0 0 0 0 0 0 0 0 0 0 0 0 0 0 0 0 0 0 0 0 0 0 0 0 0 0 0 0 0 0
0 0 0 0 0 0 0 0 0 0 0 0 0 0 0 0 0 0 0 0 0 0 0 0 0 0 0 0 0 0 0 0 0 0 0 0 0 0 0 0 0 0 0
0 0 0 0 0 0 0 0 0 0 0 0 0 0 0 0 0 0 0 0 0 0 0 0 0 0 0 0 0 0 0 0 0 0 0 0 0 0 0 0 0 0 0
0 0 0 0 0 0 0 0 0 0 0 0 0 0 0 0 0 0 0 0 0 0 0 0 0 0 0 0 0 0 0 0 0 0 0 0 0 0 0 0 0 0 0
0 0 0 0 0 0 0 0 0 0 0 0 0 0 0 0 0 0 0 0 0 0 0 0 0 0 0 0 0 0 0 0 0 0 0 0 0 0 0 0 0 0 0
0 0 0 0 0 0 0 0 0 0 0 0 0 0 0 0 0 0 0 0 0 0 0 0 0 0 0 0 0 0 0 0 0 0 0 0 0 0 0 0 0 0 0
0 0 0 0 0 0 0 0 0 0 0 0 0 0 0 0 0 0 0 0 0 0 0 0 0 0 0 0 0 0 0 0 0 0 0 0 0 0 0 0 0 0 0
0 0 0 0 0 0 0 0 0 0 0 0 0 0 0 0 0 0 0 0 0 0 0 0 0 0 0 0 0 0 0 0 0 0 0 0 0 0 0 0 0 0 0
0 0 0 0 0 0 0 0 0 0 0 0 0 0 0 0 0 0 0 0 0 0 0 0 0 0 0 0 0 0 0 0 0 0 0 0 0 0 0 0 0 0 0
0 0 0 0 0 0 0 0 0 0 0 0 0 0 0 0 0 0 0 0 0 0 0 0 0 0 0 0 0 0 0 0 0 0 0 0 0 0 0 0 0 0 0
0 0 0 0 0 0 0 0 0 0 0 0 0 0 0 0 0 0 0 0 0 0 0 0 0 0 0 0 0 0 0 0 0 0 0 0 0 0 0 0 0 0 0
0 0 0 0 0 0 0 0 0 0 0 0 0 0 0 0 0 0 0 0 0 0 0 0 0 0 0 0 0 0 0 0 0 0 0 0 0 0 0 0 0 0 0
Wind_Speed_500mb
68 64 57 67 73 82 84 82 78 78 82 83 107 125 126 125 112 102 106 108 114 113 100 96 93 91 84 90 86 79 79 76 87 84 77 74 74 65 68 55 69 73 70
69 71 65 61 62 67 78 77 76 79 84 81 81 93 107 112 125 120 112 109 112 113 105 102 108 104 104 94 90 91 89 87 90 86 82 82 69 68 78 75 73 82 75
67 71 74 74 76 76 75 76 74 77 78 80 82 95 100 102 118 124 123 123 116 105 99 91 92 94 94 93 91 93 94 96 92 88 80 83 83 91 96 94 87 79 74
68 71 81 86 86 83 81 79 77 76 79 78 80 82 85 88 95 109 110 106 106 116 109 98 98 93 88 88 89 93 96 96 83 98 102 99 97 88 86 83 87 84 83
66 73 84 84 83 82 84 84 85 86 83 85 88 90 91 93 96 99 102 106 107 107 106 102 98 100 104 94 97 95 98 91 95 99 101 100 94 84 88 81 86 87 74
71 76 81 78 82 85 85 84 85 90 92 93 93 94 94 99 98 94 96 96 93 93 95 95 97 102 103 109 105 104 103 101 118 102 106 102 97 99 90 87 86 67 49
68 78 80 80 83 89 88 86 92 93 90 98 98 98 102 102 103 103 102 100 93 93 100 105 109 108 104 103 103 105 110 110 105 105 90 81 78 77 76 66 53 47 41
66 75 78 81 86 85 83 90 92 92 92 93 97 96 97 100 96 97 94 91 96 100 101 104 104 107 103 92 89 93 99 91 78 88 78 69 60 56 51 41 41 41 38
47 61 75 78 78 78 81 87 89 84 87 92 87 86 92 89 88 87 82 85 91 99 101 95 89 85 85 86 90 81 73 65 57 53 37 38 39 37 33 29 24 11 33
41 41 40 75 78 81 83 82 78 78 80 75 76 81 84 87 89 85 81 84 83 88 89 91 89 94 96 93 75 61 53 43 40 39 38 35 28 19 9 5 17 27 33
41 43 46 35 73 76 76 74 70 67 70 77 78 81 83 83 86 85 85 86 87 90 96 93 82 81 77 61 42 40 41 42 34 29 22 9 7 4 8 18 24 27 30
48 47 43 34 43 60 65 71 72 75 86 85 88 83 85 82 80 83 83 77 73 75 75 67 59 52 36 34 39 38 36 29 22 17 9 11 9 14 17 27 36 35 40
46 41 42 40 28 37 55 67 74 76 76 78 75 79 73 70 73 74 71 80 70 48 50 47 44 44 49 45 37 33 25 18 11 11 13 17 16 24 26 27 34 36 37
65 55 38 26 25 22 32 41 51 60 64 71 75 73 69 57 52 45 38 33 40 36 49 50 51 45 39 37 25 15 15 15 12 10 11 11 13 16 19 22 27 30 38
40 46 46 33 18 7 13 20 30 36 43 51 54 51 54 41 25 33 35 39 44 54 57 46 39 35 32 28 26 13 13 8 4 1 4 7 10 15 20 25 27 30 33
28 31 32 27 17 14 27 28 27 18 18 15 12 25 24 45 42 29 45 48 49 40 42 42 37 30 31 27 19 13 7 4 5 7 10 12 14 18 23 27 29 30 33
18 19 18 15 18 25 38 55 66 58 54 49 45 45 49 54 52 51 48 52 45 34 38 39 36 28 24 18 14 7 1 4 5 7 12 16 20 24 26 28 28 27 30
28 29 30 27 32 31 42 47 65 68 83 79 66 65 57 54 51 43 42 41 41 32 31 29 28 23 18 13 8 4 2 8 12 14 17 17 19 19 21 24 27 29 35
43 46 46 49 53 54 58 57 64 65 73 69 61 57 53 49 45 40 31 34 34 32 27 24 19 17 13 7 2 2 6 9 12 10 13 16 20 23 19 20 25 26 29
49 45 43 44 45 47 50 52 56 61 59 56 42 39 34 29 32 32 28 26 25 25 20 16 11 7 5 2 2 4 5 7 11 14 17 16 14 16 16 18 21 24 27
43 45 49 47 44 43 42 44 45 47 46 41 38 27 24 24 27 25 23 22 20 16 14 10 5 1 2 3 5 7 8 9 10 9 9 12 15 13 12 16 18 22 27
35 35 36 39 38 40 42 41 40 41 35 34 32 25 21 22 21 18 15 12 9 5 6 6 5 6 4 3 2 2 3 3 8 13 15 14 11 9 11 16 20 22 27
32 32 35 36 34 33 34 34 33 31 28 26 23 20 18 16 12 10 11 10 10 9 8 3 2 3 6 5 5 5 6 11 13 16 18 18 12 9 13 15 19 24 27
26 26 28 27 25 27 28 29 30 27 23 21 19 18 17 15 14 13 10 8 5 7 10 7 9 9 8 8 9 10 15 16 16 18 18 17 17 12 12 15 18 22 28
24 23 26 26 26 26 24 24 21 17 16 16 17 16 13 8 6 7 9 12 12 12 11 11 10 12 15 14 15 14 12 15 15 16 16 16 15 14 12 14 20 28 32
24 23 24 23 22 20 19 18 17 15 14 12 12 11 5 5 7 10 11 12 9 9 10 12 14 15 15 17 16 16 17 17 17 16 14 14 15 15 15 21 25 27 30
Wind_Direction_500mb
216 231 221 216 215 216 218 220 222 221 227 226 223 225 230 231 233 232 232 233 234 239 242 247 247 252 260 256 256 259 261 261 258 263 268 263 269 267 273 276 276 262 256
211 222 227 222 222 218 219 222 223 224 226 227 227 231 233 233 233 237 235 236 238 242 246 250 251 258 260 257 258 262 262 264 262 263 264 262 263 265 272 267 268 259 248
216 217 222 223 219 224 226 225 226 226 229 230 228 229 233 236 234 236 239 240 239 239 243 244 250 255 256 257 254 257 262 269 265 265 266 267 267 267 270 267 263 253 243
217 221 225 229 229 228 226 224 225 227 228 229 229 228 232 231 233 234 237 238 237 241 245 244 249 251 251 252 254 256 265 269 265 264 269 258 270 265 259 258 249 236 233
233 226 229 232 234 231 230 228 228 224 227 229 229 231 230 233 236 236 236 238 239 240 243 245 245 248 252 260 263 261 270 265 268 268 260 264 261 258 256 256 243 237 231
232 238 232 232 234 235 232 230 230 231 230 226 227 228 228 230 233 235 235 234 233 234 238 241 244 249 254 262 265 264 267 269 269 262 262 257 263 262 259 248 232 227 227
235 241 233 233 234 239 235 230 233 233 231 231 228 227 231 234 236 237 236 234 234 237 241 244 250 256 261 262 263 265 265 266 264 260 255 247 245 243 233 215 211 211 224
242 241 240 235 236 235 232 231 233 229 228 230 232 230 231 233 235 237 237 236 237 241 245 251 256 260 259 261 263 264 259 256 260 251 247 247 247 230 222 223 224 230 230
294 260 246 240 238 239 236 236 234 230 230 231 232 232 231 234 235 237 236 237 238 242 248 250 256 255 257 258 262 259 259 255 247 241 225 218 214 210 210 209 233 266 256
291 293 296 247 245 239 237 236 236 233 233 231 236 238 239 237 238 238 234 233 236 240 244 250 248 247 252 254 255 255 248 225 212 204 197 192 189 204 240 307 250 243 250
303 294 266 283 245 245 239 237 234 232 230 231 229 235 236 235 235 235 235 238 239 240 242 239 241 248 251 250 242 227 219 199 181 175 166 157 130 118 227 231 243 254 255
308 297 292 278 243 234 237 231 226 227 227 226 228 228 235 236 235 236 238 234 234 234 234 234 235 239 233 201 187 180 168 165 162 157 113 117 171 198 221 249 264 264 258
333 318 299 285 266 236 223 225 225 226 234 231 226 230 232 231 232 235 235 236 230 223 216 205 190 180 171 167 170 176 174 158 122 128 164 195 223 257 267 267 267 271 272
3 352 326 307 272 247 225 219 221 226 225 222 220 221 217 215 216 211 208 202 192 193 178 161 157 156 152 150 139 138 104 105 135 190 233 248 263 271 278 279 281 284 288
7 5 357 339 326 280 222 203 212 216 222 224 216 210 198 175 165 173 165 163 147 150 145 137 133 130 123 105 99 103 107 118 128 180 264 272 280 283 288 293 297 297 298
1 13 11 -0 4 45 72 90 92 119 120 145 171 176 150 142 140 137 137 126 123 125 121 114 103 98 95 98 97 89 82 56 14 351 329 316 310 310 305 306 309 310 308
26 26 33 41 64 73 89 84 85 90 93 90 104 108 120 112 117 127 120 115 112 122 116 117 118 115 112 114 117 123 59 351 339 321 318 312 311 312 316 317 316 310 302
63 69 76 78 78 101 89 100 100 91 97 96 96 98 98 99 104 108 111 114 116 114 113 114 112 114 116 121 124 154 282 305 306 320 326 325 322 313 310 306 303 301 301
80 82 88 97 101 101 104 103 102 102 96 98 101 104 107 108 109 104 102 102 105 106 105 108 113 117 118 119 116 321 332 325 332 331 299 291 293 302 306 301 299 302 304
86 91 94 96 100 104 106 108 107 103 98 95 92 91 95 101 96 97 99 99 101 104 109 113 115 112 124 144 272 297 283 283 276 279 288 300 300 302 307 311 318 318 315
90 94 94 91 89 91 95 95 97 97 100 101 93 87 86 88 94 98 103 107 109 108 106 94 89 119 220 246 258 269 275 270 284 295 293 289 292 310 316 310 314 315 313
78 82 85 89 92 91 92 94 93 95 97 98 95 90 79 78 82 82 83 84 91 105 140 175 218 263 276 295 339 327 317 298 285 288 292 298 312 330 321 310 313 318 321
67 74 79 80 80 83 84 84 83 82 80 79 80 76 72 73 73 78 76 69 52 54 70 95 35 343 21 0 317 320 280 280 299 316 321 319 318 315 305 310 313 314 318
66 66 63 66 75 78 78 74 70 69 66 64 65 66 70 61 47 45 55 71 78 32 36 21 6 8 352 348 338 317 310 330 319 314 318 324 325 304 303 318 329 333 329
60 61 66 65 62 65 68 77 78 79 83 84 82 80 79 73 61 21 19 30 31 17 11 359 352 338 345 335 320 330 326 314 318 319 322 319 321 327 336 340 329 310 306
57 62 65 66 72 74 76 74 69 76 76 74 77 69 48 7 38 1 350 15 358 348 348 336 330 337 328 314 329 324 320 323 318 314 314 319 322 322 319 308 310 317 325
Wind_Speed_850mb
68 64 57 67 73 82 84 82 78 78 82 83 107 125 126 125 112 102 106 108 114 113 100 96 93 91 84 90 86 79 79 76 87 84 77 74 74 65 68 55 69 73 70
69 71 65 61 62 67 78 77 76 79 84 81 81 93 107 112 125 120 112 109 112 113 105 102 108 104 104 94 90 91 89 87 90 86 82 82 69 68 78 75 73 82 75
67 71 74 74 76 76 75 76 74 77 78 80 82 95 100 102 118 124 123 123 116 105 99 91 92 94 94 93 91 93 94 96 92 88 80 83 83 91 96 94 87 79 74
68 71 81 86 86 83 81 79 77 76 79 78 80 82 85 88 95 109 110 106 106 116 109 98 98 93 88 88 89 93 96 96 83 98 102 99 97 88 86 83 87 84 83
66 73 84 84 83 82 84 84 85 86 83 85 88 90 91 93 96 99 102 106 107 107 106 102 98 100 104 94 97 95 98 91 95 99 101 100 94 84 88 81 86 87 74
71 76 81 78 82 85 85 84 85 90 92 93 93 94 94 99 98 94 96 96 93 93 95 95 97 102 103 109 105 104 103 101 118 102 106 102 97 99 90 87 86 67 49
68 78 80 80 83 89 88 86 92 93 90 98 98 98 102 102 103 103 102 100 93 93 100 105 109 108 104 103 103 105 110 110 105 105 90 81 78 77 76 66 53 47 41
66 75 78 81 86 85 83 90 92 92 92 93 97 96 97 100 96 97 94 91 96 100 101 104 104 107 103 92 89 93 99 91 78 88 78 69 60 56 51 41 41 41 38
47 61 75 78 78 78 81 87 89 84 87 92 87 86 92 89 88 87 82 85 91 99 101 95 89 85 85 86 90 81 73 65 57 53 37 38 39 37 33 29 24 11 33
41 41 40 75 78 81 83 82 78 78 80 75 76 81 84 87 89 85 81 84 83 88 89 91 89 94 96 93 75 61 53 43 40 39 38 35 28 19 9 5 17 27 33
41 43 46 35 73 76 76 74 70 67 70 77 78 81 83 83 86 85 85 86 87 90 96 93 82 81 77 61 42 40 41 42 34 29 22 9 7 4 8 18 24 27 30
48 47 43 34 43 60 65 71 72 75 86 85 88 83 85 82 80 83 83 77 73 75 75 67 59 52 36 34 39 38 36 29 22 17 9 11 9 14 17 27 36 35 40
46 41 42 40 28 37 55 67 74 76 76 78 75 79 73 70 73 74 71 80 70 48 50 47 44 44 49 45 37 33 25 18 11 11 13 17 16 24 26 27 34 36 37
65 55 38 26 25 22 32 41 51 60 64 71 75 73 69 57 52 45 38 33 40 36 49 50 51 45 39 37 25 15 15 15 12 10 11 11 13 16 19 22 27 30 38
40 46 46 33 18 7 13 20 30 36 43 51 54 51 54 41 25 33 35 39 44 54 57 46 39 35 32 28 26 13 13 8 4 1 4 7 10 15 20 25 27 30 33
28 31 32 27 17 14 27 28 27 18 18 15 12 25 24 45 42 29 45 48 49 40 42 42 37 30 31 27 19 13 7 4 5 7 10 12 14 18 23 27 29 30 33
18 19 18 15 18 25 38 55 66 58 54 49 45 45 49 54 52 51 48 52 45 34 38 39 36 28 24 18 14 7 1 4 5 7 12 16 20 24 26 28 28 27 30
28 29 30 27 32 31 42 47 65 68 83 79 66 65 57 54 51 43 42 41 41 32 31 29 28 23 18 13 8 4 2 8 12 14 17 17 19 19 21 24 27 29 35
43 46 46 49 53 54 58 57 64 65 73 69 61 57 53 49 45 40 31 34 34 32 27 24 19 17 13 7 2 2 6 9 12 10 13 16 20 23 19 20 25 26 29
49 45 43 44 45 47 50 52 56 61 59 56 42 39 34 29 32 32 28 26 25 25 20 16 11 7 5 2 2 4 5 7 11 14 17 16 14 16 16 18 21 24 27
43 45 49 47 44 43 42 44 45 47 46 41 38 27 24 24 27 25 23 22 20 16 14 10 5 1 2 3 5 7 8 9 10 9 9 12 15 13 12 16 18 22 27
35 35 36 39 38 40 42 41 40 41 35 34 32 25 21 22 21 18 15 12 9 5 6 6 5 6 4 3 2 2 3 3 8 13 15 14 11 9 11 16 20 22 27
32 32 35 36 34 33 34 34 33 31 28 26 23 20 18 16 12 10 11 10 10 9 8 3 2 3 6 5 5 5 6 11 13 16 18 18 12 9 13 15 19 24 27
26 26 28 27 25 27 28 29 30 27 23 21 19 18 17 15 14 13 10 8 5 7 10 7 9 9 8 8 9 10 15 16 16 18 18 17 17 12 12 15 18 22 28
24 23 26 26 26 26 24 24 21 17 16 16 17 16 13 8 6 7 9 12 12 12 11 11 10 12 15 14 15 14 12 15 15 16 16 16 15 14 12 14 20 28 32
24 23 24 23 22 20 19 18 17 15 14 12 12 11 5 5 7 10 11 12 9 9 10 12 14 15 15 17 16 16 17 17 17 16 14 14 15 15 15 21 25 27 30
Wind_Direction_850mb
216 231 221 216 215 216 218 220 222 221 227 226 223 225 230 231 233 232 232 233 234 239 242 247 247 252 260 256 256 259 261 261 258 263 268 263 269 267 273 276 276 262 256
211 222 227 222 222 218 219 222 223 224 226 227 227 231 233 233 233 237 235 236 238 242 246 250 251 258 260 257 258 262 262 264 262 263 264 262 263 265 272 267 268 259 248
216 217 222 223 219 224 226 225 226 226 229 230 228 229 233 236 234 236 239 240 239 239 243 244 250 255 256 257 254 257 262 269 265 265 266 267 267 267 270 267 263 253 243
217 221 225 229 229 228 226 224 225 227 228 229 229 228 232 231 233 234 237 238 237 241 245 244 249 251 251 252 254 256 265 269 265 264 269 258 270 265 259 258 249 236 233
233 226 229 232 234 231 230 228 228 224 227 229 229 231 230 233 236 236 236 238 239 240 243 245 245 248 252 260 263 261 270 265 268 268 260 264 261 258 256 256 243 237 231
232 238 232 232 234 235 232 230 230 231 230 226 227 228 228 230 233 235 235 234 233 234 238 241 244 249 254 262 265 264 267 269 269 262 262 257 263 262 259 248 232 227 227
235 241 233 233 234 239 235 230 233 233 231 231 228 227 231 234 236 237 236 234 234 237 241 244 250 256 261 262 263 265 265 266 264 260 255 247 245 243 233 215 211 211 224
242 241 240 235 236 235 232 231 233 229 228 230 232 230 231 233 235 237 237 236 237 241 245 251 256 260 259 261 263 264 259 256 260 251 247 247 247 230 222 223 224 230 230
294 260 246 240 238 239 236 236 234 230 230 231 232 232 231 234 235 237 236 237 238 242 248 250 256 255 257 258 262 259 259 255 247 241 225 218 214 210 210 209 233 266 256
291 293 296 247 245 239 237 236 236 233 233 231 236 238 239 237 238 238 234 233 236 240 244 250 248 247 252 254 255 255 248 225 212 204 197 192 189 204 240 307 250 243 250
303 294 266 283 245 245 239 237 234 232 230 231 229 235 236 235 235 235 235 238 239 240 242 239 241 248 251 250 242 227 219 199 181 175 166 157 130 118 227 231 243 254 255
308 297 292 278 243 234 237 231 226 227 227 226 228 228 235 236 235 236 238 234 234 234 234 234 235 239 233 201 187 180 168 165 162 157 113 117 171 198 221 249 264 264 258
333 318 299 285 266 236 223 225 225 226 234 231 226 230 232 231 232 235 235 236 230 223 216 205 190 180 171 167 170 176 174 158 122 128 164 195 223 257 267 267 267 271 272
3 352 326 307 272 247 225 219 221 226 225 222 220 221 217 215 216 211 208 202 192 193 178 161 157 156 152 150 139 138 104 105 135 190 233 248 263 271 278 279 281 284 288
7 5 357 339 326 280 222 203 212 216 222 224 216 210 198 175 165 173 165 163 147 150 145 137 133 130 123 105 99 103 107 118 128 180 264 272 280 283 288 293 297 297 298
1 13 11 -0 4 45 72 90 92 119 120 145 171 176 150 142 140 137 137 126 123 125 121 114 103 98 95 98 97 89 82 56 14 351 329 316 310 310 305 306 309 310 308
26 26 33 41 64 73 89 84 85 90 93 90 104 108 120 112 117 127 120 115 112 122 116 117 118 115 112 114 117 123 59 351 339 321 318 312 311 312 316 317 316 310 302
63 69 76 78 78 101 89 100 100 91 97 96 96 98 98 99 104 108 111 114 116 114 113 114 112 114 116 121 124 154 282 305 306 320 326 325 322 313 310 306 303 301 301
80 82 88 97 101 101 104 103 102 102 96 98 101 104 107 108 109 104 102 102 105 106 105 108 113 117 118 119 116 321 332 325 332 331 299 291 293 302 306 301 299 302 304
86 91 94 96 100 104 106 108 107 103 98 95 92 91 95 101 96 97 99 99 101 104 109 113 115 112 124 144 272 297 283 283 276 279 288 300 300 302 307 311 318 318 315
90 94 94 91 89 91 95 95 97 97 100 101 93 87 86 88 94 98 103 107 109 108 106 94 89 119 220 246 258 269 275 270 284 295 293 289 292 310 316 310 314 315 313
78 82 85 89 92 91 92 94 93 95 97 98 95 90 79 78 82 82 83 84 91 105 140 175 218 263 276 295 339 327 317 298 285 288 292 298 312 330 321 310 313 318 321
67 74 79 80 80 83 84 84 83 82 80 79 80 76 72 73 73 78 76 69 52 54 70 95 35 343 21 0 317 320 280 280 299 316 321 319 318 315 305 310 313 314 318
66 66 63 66 75 78 78 74 70 69 66 64 65 66 70 61 47 45 55 71 78 32 36 21 6 8 352 348 338 317 310 330 319 314 318 324 325 304 303 318 329 333 329
60 61 66 65 62 65 68 77 78 79 83 84 82 80 79 73 61 21 19 30 31 17 11 359 352 338 345 335 320 330 326 314 318 319 322 319 321 327 336 340 329 310 306
57 62 65 66 72 74 76 74 69 76 76 74 77 69 48 7 38 1 350 15 358 348 348 336 330 337 328 314 329 324 320 323 318 314 314 319 322 322 319 308 310 317 325